Waarnemingen

Advertentie
Mijn weer
Tortosa, Spanje (8238): temperatuur & dauwpunt: 12.11.2018 17:00:00 - 18.11.2018 17:00:00 (CET)Tortosa, Spanje (8238): windsnelheid: 12.11.2018 17:00:00 - 18.11.2018 17:00:00 (CET)Tortosa, Spanje (8238): windrichting: 12.11.2018 17:00:00 - 18.11.2018 17:00:00 (CET)Tortosa, Spanje (8238): luchtdruk: 12.11.2018 17:00:00 - 18.11.2018 17:00:00 (CET)Tortosa, Spanje (8238): zicht: 12.11.2018 17:00:00 - 18.11.2018 17:00:00 (CET)Tortosa, Spanje (8238): neerslag: 12.11.2018 17:00:00 - 18.11.2018 17:00:00 (CET)
Datum & Tijd tt [°C] td [°C] ff [km/u] ff [kn] dd ppp [hPa] vv [km] rr [mm]
18.11.2018 17:00:00 13,7 10,9 9 5 NO 1009,3 20 0,0
18.11.2018 16:00:00 14,1 11,1 11 6 ONO 1009,4 7 -
18.11.2018 15:00:00 14,1 11,1 5 3 ONO 1009,5 20 0,0
18.11.2018 14:00:00 14,2 10,8 11 6 ONO 1010,1 19 0,0
18.11.2018 13:00:00 14,3 10,7 5 3 NO 1010,8 7 -
18.11.2018 12:00:00 14,2 10,2 8 4 O 1011,4 20 0,0
18.11.2018 11:00:00 13,6 10,0 8 4 O 1012,0 20 0,0
18.11.2018 10:00:00 13,2 10,0 9 5 ONO 1011,9 15 -
18.11.2018 09:00:00 13,0 10,4 9 5 ONO 1011,7 20 0,0
18.11.2018 08:00:00 13,0 11,1 4 2 Z 1011,4 19 0,0
18.11.2018 07:00:00 13,3 10,3 5 3 WZW 1010,9 10 -
18.11.2018 06:00:00 13,5 10,3 4 2 NNO 1011,2 20 0,0
18.11.2018 05:00:00 13,6 11,3 5 3 ONO 1011,5 20 0,0
18.11.2018 04:00:00 13,5 11,0 5 3 NNO 1011,9 20 -
18.11.2018 03:00:00 13,6 11,1 8 4 O 1012,4 20 0,0
18.11.2018 02:00:00 13,8 11,0 5 3 OZO 1012,7 20 0,0
18.11.2018 01:00:00 13,9 11,4 4 2 Z 1013,3 20 -
18.11.2018 00:00:00 14,0 12,0 4 2 ZZW 1013,8 20 0,0
17.11.2018 23:00:00 13,9 12,3 4 2 ZZW 1014,3 19 0,0
17.11.2018 22:00:00 13,9 12,5 8 4 ZW 1014,7 17 -
17.11.2018 21:00:00 14,3 12,2 5 3 ZZW 1015,0 19 0,0
17.11.2018 20:00:00 14,5 11,5 5 3 Z 1015,2 20 0,0
17.11.2018 19:00:00 14,7 11,3 5 3 ZW 1015,3 4,0 -
17.11.2018 18:00:00 14,8 11,2 8 4 O 1015,1 20 0,0
17.11.2018 17:00:00 15,6 11,8 9 5 O 1015,2 19 0,0
17.11.2018 16:00:00 16,6 12,3 5 3 ZO 1015,3 5 -
17.11.2018 15:00:00 17,0 11,9 8 4 OZO 1015,7 20 0,0
17.11.2018 14:00:00 17,7 11,5 4 2 Z 1016,1 20 0,0
17.11.2018 13:00:00 17,5 13,0 4 2 ZZO 1016,8 5 -
17.11.2018 12:00:00 17,2 14,1 4 2 ZZW 1017,3 20 0,0
17.11.2018 11:00:00 16,5 14,5 4 2 ZZW 1018,0 16 0,0
17.11.2018 10:00:00 15,3 15,0 2 1 NNO 1018,6 3,0 -
17.11.2018 09:00:00 14,4 14,1 2 1 NNO 1018,7 2,6 0,0
17.11.2018 08:00:00 14,3 14,0 2 1 Z 1018,4 - 0,0
17.11.2018 07:00:00 14,2 13,9 2 1 NNO 1018,5 8 -
17.11.2018 06:00:00 14,3 14,1 4 2 WNW 1018,5 2,2 0,2
17.11.2018 05:00:00 14,4 14,2 4 2 WNW 1018,6 3,5 0,0
17.11.2018 04:00:00 14,4 14,1 4 2 N 1019,1 2,0 -
17.11.2018 03:00:00 14,6 14,1 9 5 WNW 1019,7 4,5 0,2
17.11.2018 02:00:00 14,8 14,5 5 3 NNO 1019,9 1,7 0,0
17.11.2018 01:00:00 15,0 14,0 4 2 WNW 1020,1 10 -
17.11.2018 00:00:00 15,1 14,3 4 2 ZO 1020,3 7 0,4
16.11.2018 23:00:00 15,2 14,7 5 3 WNW 1020,4 4,1 0,2
16.11.2018 22:00:00 15,3 14,8 2 1 W 1020,5 - -
16.11.2018 21:00:00 15,4 14,9 8 4 ZW 1020,4 4,9 0,6
16.11.2018 20:00:00 15,5 14,9 2 1 O 1020,5 7 0,0
16.11.2018 19:00:00 15,9 15,3 4 2 N 1020,4 3,0 -
16.11.2018 18:00:00 16,8 15,0 4 2 ZZW 1020,3 7 0,0
16.11.2018 17:00:00 17,3 15,3 8 4 ZZW 1020,0 16 0,0
16.11.2018 16:00:00 18,4 14,9 5 3 ZO 1020,0 8 -
16.11.2018 15:00:00 19,2 15,5 8 4 Z 1020,1 20 0,0
16.11.2018 14:00:00 19,8 15,6 5 3 Z 1020,6 20 0,0
16.11.2018 13:00:00 18,1 15,2 2 1 NO 1021,1 5 -
16.11.2018 12:00:00 18,3 15,7 4 2 NO 1021,7 20 0,0
16.11.2018 11:00:00 17,9 15,9 5 3 NNO 1021,9 19 0,0
16.11.2018 10:00:00 15,2 14,9 5 3 N 1021,9 5 -
16.11.2018 09:00:00 14,3 14,0 5 3 N 1021,6 - 0,0
16.11.2018 08:00:00 14,0 13,8 5 3 N 1021,2 4,2 0,0
16.11.2018 07:00:00 13,9 13,7 5 3 NNW 1020,8 15 -
16.11.2018 06:00:00 13,9 13,7 5 3 NNW 1020,6 4,2 0,0
16.11.2018 05:00:00 14,1 13,8 4 2 NNW 1020,7 7 0,2
16.11.2018 04:00:00 14,3 14,0 5 3 NNW 1020,6 4,8 -
16.11.2018 03:00:00 14,4 14,2 8 4 N 1020,7 9 0,0
16.11.2018 02:00:00 14,4 14,2 4 2 NNW 1021,0 6 0,0
16.11.2018 01:00:00 14,4 14,2 5 3 N 1021,1 7 -
16.11.2018 00:00:00 14,4 14,1 8 4 N 1021,2 8 0,0
15.11.2018 23:00:00 14,4 14,1 5 3 NNW 1021,0 12 0,0
15.11.2018 22:00:00 14,5 14,3 5 3 NNW 1020,8 11 -
15.11.2018 21:00:00 14,7 14,5 4 2 NNO 1020,5 9 0,0
15.11.2018 20:00:00 14,8 14,6 8 4 N 1020,3 12 0,0
15.11.2018 19:00:00 15,0 14,8 5 3 N 1019,8 15 -
15.11.2018 18:00:00 15,0 14,7 5 3 NW 1019,5 10 0,0
15.11.2018 17:00:00 15,3 14,8 5 3 N 1019,5 - 3,0
15.11.2018 16:00:00 16,3 15,5 5 3 NNO 1019,6 3,0 -
15.11.2018 15:00:00 16,3 15,5 4 2 N 1019,7 20 0,0
15.11.2018 14:00:00 15,2 14,9 8 4 N 1019,8 20 0,0
15.11.2018 13:00:00 14,1 14,1 9 5 N 1020,4 5 -
15.11.2018 12:00:00 13,4 13,2 13 7 NNO - 0,4 21,0
15.11.2018 11:00:00 14,1 13,6 9 5 WNW 1020,8 1,2 21,0
15.11.2018 10:00:00 15,2 14,6 5 3 Z 1020,1 13 -
15.11.2018 09:00:00 15,7 15,4 8 4 Z 1019,5 1,4 2,0
15.11.2018 08:00:00 15,2 14,9 8 4 NNW 1019,2 4,8 0,0
15.11.2018 07:00:00 15,3 15,1 9 5 N 1019,0 5 -
15.11.2018 06:00:00 15,2 14,9 11 6 WNW 1019,1 5 7,0
15.11.2018 05:00:00 15,0 14,5 4 2 NNW 1019,2 4,8 0,0
15.11.2018 04:00:00 15,1 14,5 8 4 NNW 1019,6 7 -
15.11.2018 03:00:00 15,1 14,5 5 3 NNW 1020,3 - 0,0
15.11.2018 02:00:00 15,4 14,8 4 2 N 1020,9 4,5 0,0
15.11.2018 01:00:00 15,6 14,8 4 2 NNO 1021,3 - -
15.11.2018 00:00:00 15,8 15,0 5 3 WNW 1021,7 4,8 0,0
14.11.2018 23:00:00 16,2 15,2 5 3 W 1022,1 8 0,0
14.11.2018 22:00:00 16,3 15,2 8 4 WZW 1022,5 6 -
14.11.2018 21:00:00 16,6 15,0 5 3 Z 1022,6 11 0,0
14.11.2018 20:00:00 16,7 14,9 8 4 ZZW 1022,7 9 0,0
14.11.2018 19:00:00 16,8 14,8 11 6 WZW 1022,7 3,0 -
14.11.2018 18:00:00 17,3 14,6 5 3 Z 1022,4 16 0,0
14.11.2018 17:00:00 18,3 15,2 4 2 W 1022,5 19 0,0
14.11.2018 16:00:00 19,9 14,5 11 6 ONO 1022,5 5 -
14.11.2018 15:00:00 20,5 14,4 8 4 ONO 1022,5 20 0,0
14.11.2018 14:00:00 19,6 14,4 8 4 O 1023,0 19 0,0
14.11.2018 13:00:00 19,3 14,8 2 1 ZZO 1023,6 8 -
14.11.2018 12:00:00 18,4 15,3 2 1 NNW 1024,4 14 0,0
14.11.2018 11:00:00 17,4 15,2 2 1 NNO 1025,2 14 0,0
14.11.2018 10:00:00 15,7 14,9 4 2 N 1025,3 7 -
14.11.2018 09:00:00 14,7 14,2 2 1 N 1025,3 2,5 0,0
14.11.2018 08:00:00 14,5 13,7 5 3 N 1025,1 3,7 0,0
14.11.2018 07:00:00 14,8 14,0 5 3 N 1024,8 9 -
14.11.2018 06:00:00 15,1 14,3 5 3 N 1025,1 - 0,0
14.11.2018 05:00:00 15,2 14,4 2 1 N 1025,2 8 0,0
14.11.2018 04:00:00 15,4 14,4 4 2 NNW 1025,2 11 -
14.11.2018 03:00:00 15,5 14,5 4 2 N 1025,8 10 0,0
14.11.2018 02:00:00 15,8 14,8 5 3 NNW 1025,9 7 0,0
14.11.2018 01:00:00 16,5 15,2 4 2 WZW 1026,1 10 -
14.11.2018 00:00:00 16,8 15,1 2 1 O 1026,5 12 0,0
13.11.2018 23:00:00 17,0 15,3 5 3 Z 1026,6 12 0,0
13.11.2018 22:00:00 16,6 15,3 2 1 ZZW 1026,8 9 -
13.11.2018 21:00:00 16,8 15,1 2 1 ZZW 1026,6 11 0,0
13.11.2018 20:00:00 17,5 15,7 2 1 ZZW 1026,5 12 0,0
13.11.2018 19:00:00 17,6 15,4 4 2 ZO 1026,4 8 -
13.11.2018 18:00:00 17,5 14,9 4 2 WZW 1025,9 12 0,0
13.11.2018 17:00:00 17,7 14,8 4 2 ZW 1025,6 20 0,0
13.11.2018 16:00:00 18,1 14,4 5 3 NNW 1025,3 8 -
13.11.2018 15:00:00 18,3 14,0 8 4 N 1025,0 20 0,0
13.11.2018 14:00:00 18,4 14,3 5 3 N 1025,3 20 0,0
13.11.2018 13:00:00 17,4 13,9 8 4 N 1025,5 9 -
13.11.2018 12:00:00 17,0 13,3 8 4 N 1025,7 20 0,0
13.11.2018 11:00:00 16,2 12,9 9 5 N 1025,8 20 0,0
13.11.2018 10:00:00 15,3 12,6 9 5 N 1025,4 9 -
13.11.2018 09:00:00 14,8 13,0 9 5 NNW 1024,7 20 0,0
13.11.2018 08:00:00 14,5 12,7 8 4 N 1023,6 20 0,0
13.11.2018 07:00:00 14,5 13,5 9 5 N 1023,1 10 -
13.11.2018 06:00:00 14,8 14,2 5 3 N 1022,5 8 0,0
13.11.2018 05:00:00 14,8 14,2 4 2 N 1022,2 8 0,0
13.11.2018 04:00:00 14,9 14,4 2 1 NNW 1021,9 8 -
13.11.2018 03:00:00 14,9 14,4 5 3 N 1021,9 7 0,0
13.11.2018 02:00:00 15,2 14,4 4 2 N 1021,2 7 0,0
13.11.2018 01:00:00 15,5 14,7 5 3 NNW 1021,0 8 -
13.11.2018 00:00:00 15,7 14,7 5 3 N 1020,8 9 0,0
12.11.2018 23:00:00 16,4 15,1 4 2 WNW 1020,6 11 0,0
12.11.2018 22:00:00 16,6 15,3 5 3 ZW 1020,4 13 -
12.11.2018 21:00:00 16,5 15,4 5 3 ZW 1020,1 11 0,0
12.11.2018 20:00:00 16,6 15,3 5 3 ZW 1019,8 8 0,0
12.11.2018 19:00:00 16,9 15,1 5 3 WZW 1019,0 6 -
12.11.2018 18:00:00 17,6 15,0 4 2 ZO 1018,5 15 0,0
12.11.2018 17:00:00 18,6 15,7 4 2 Z 1018,0 18 0,0

tt = temperatuur
td = dauwpunt
ff = windsnelheid
dd = windrichting
ppp = luchtdruk
vv = zicht
rr = neerslag

Weerstations in de omgeving